| time (UTC) | temp F | wind direction | speed knots | gust knots | rain 1hr in | rain 24hr in | rain mn in | humidity % | barometer mb |
| 20260510141603 | 53 | 120 | 4.3 | 6.1 | 0.00 | 0.00 | 0.00 | 70 | 1018.3 |
| 20260510140603 | 52 | 114 | 5.2 | 6.1 | 0.00 | 0.00 | 0.00 | 70 | 1017.8 |
| 20260510135603 | 51 | 113 | 5.2 | 7.0 | 0.00 | 0.00 | 0.00 | 72 | 1017.8 |
| 20260510135103 | 50 | 115 | 4.3 | 5.2 | 0.00 | 0.00 | 0.00 | 73 | 1018.0 |
| 20260510134603 | 50 | 113 | 3.5 | 5.2 | 0.00 | 0.00 | 0.00 | 74 | 1018.0 |
| 20260510134103 | 49 | 111 | 4.3 | 5.2 | 0.00 | 0.00 | 0.00 | 74 | 1018.0 |
| 20260510133603 | 49 | 114 | 4.3 | 5.2 | 0.00 | 0.00 | 0.00 | 75 | 1018.1 |
| 20260510133103 | 49 | 114 | 4.3 | 5.2 | 0.00 | 0.00 | 0.00 | 75 | 1018.1 |
| 20260510132603 | 48 | 110 | 2.6 | 4.3 | 0.00 | 0.00 | 0.00 | 76 | 1018.5 |
| 20260510132103 | 47 | 110 | 4.3 | 5.2 | 0.00 | 0.00 | 0.00 | 77 | 1018.6 |
| 20260510131603 | 47 | 113 | 4.3 | 5.2 | 0.00 | 0.00 | 0.00 | 78 | 1018.6 |
| 20260510130603 | 46 | 112 | 4.3 | 5.2 | 0.00 | 0.00 | 0.00 | 78 | 1018.7 |
| 20260510125603 | 46 | 111 | 4.3 | 4.3 | 0.00 | 0.00 | 0.00 | 78 | 1018.8 |
| 20260510125103 | 46 | 111 | 4.3 | 5.2 | 0.00 | 0.00 | 0.00 | 78 | 1018.7 |
| 20260510124103 | 45 | 110 | 1.7 | 2.6 | 0.00 | 0.00 | 0.00 | 78 | 1018.8 |
| 20260510123603 | 45 | 108 | 1.7 | 2.6 | 0.00 | 0.00 | 0.00 | 78 | 1018.8 |
| 20260510123104 | 45 | 90 | 2.6 | 2.6 | 0.00 | 0.00 | 0.00 | 77 | 1018.8 |
| 20260510122605 | 46 | 90 | 1.7 | 2.6 | 0.00 | 0.00 | 0.00 | 76 | 1018.9 |
| 20260510121103 | 46 | 90 | 3.5 | 4.3 | 0.00 | 0.00 | 0.00 | 77 | 1018.8 |
| 20260510120604 | 46 | 90 | 2.6 | 4.3 | 0.00 | 0.00 | 0.00 | 77 | 1018.7 |
| 20260510120104 | 45 | 121 | 1.7 | 2.6 | 0.00 | 0.00 | 0.00 | 77 | 1018.7 |
| 20260510115603 | 45 | 121 | 1.7 | 2.6 | 0.00 | 0.00 | 0.00 | 77 | 1018.8 |
| 20260510115103 | 45 | 121 | 0.0 | 2.6 | 0.00 | 0.00 | 0.00 | 76 | 1018.8 |
| 20260510114603 | 45 | 121 | 1.7 | 2.6 | 0.00 | 0.00 | 0.00 | 76 | 1018.8 |
| 20260510114103 | 45 | 121 | 1.7 | 2.6 | 0.00 | 0.00 | 0.00 | 77 | 1018.8 |
| 20260510113604 | 45 | 121 | 0.9 | 2.6 | 0.00 | 0.00 | 0.00 | 76 | 1018.9 |
| 20260510113104 | 46 | 121 | 2.6 | 2.6 | 0.00 | 0.00 | 0.00 | 75 | 1018.9 |
| 20260510112604 | 46 | 121 | 1.7 | 2.6 | 0.00 | 0.00 | 0.00 | 75 | 1018.9 |
| 20260510112103 | 46 | 121 | 1.7 | 2.6 | 0.00 | 0.00 | 0.00 | 75 | 1018.9 |
| 20260510111603 | 46 | 121 | 1.7 | 2.6 | 0.00 | 0.00 | 0.00 | 74 | 1019.0 |
| 20260510111104 | 47 | 121 | 4.3 | 5.2 | 0.00 | 0.00 | 0.00 | 74 | 1018.8 |
| 20260510110604 | 47 | 121 | 5.2 | 7.0 | 0.00 | 0.00 | 0.00 | 74 | 1018.8 |
| 20260510105603 | 47 | 121 | 7.0 | 7.8 | 0.00 | 0.00 | 0.00 | 73 | 1018.9 |
| 20260510104604 | 48 | 119 | 5.2 | 6.1 | 0.00 | 0.00 | 0.00 | 71 | 1018.8 |
| 20260510104103 | 48 | 121 | 5.2 | 6.1 | 0.00 | 0.00 | 0.00 | 70 | 1018.8 |
| 20260510103603 | 49 | 123 | 6.1 | 6.1 | 0.00 | 0.00 | 0.00 | 69 | 1018.9 |
| 20260510103104 | 49 | 123 | 6.1 | 6.1 | 0.00 | 0.00 | 0.00 | 69 | 1018.9 |
| 20260510102604 | 49 | 123 | 5.2 | 6.1 | 0.00 | 0.00 | 0.00 | 68 | 1019.0 |
| 20260510102103 | 49 | 122 | 5.2 | 6.1 | 0.00 | 0.00 | 0.00 | 67 | 1018.9 |
| 20260510101103 | 50 | 121 | 4.3 | 5.2 | 0.00 | 0.00 | 0.00 | 66 | 1018.9 |
| 20260510100603 | 51 | 148 | 4.3 | 7.8 | 0.00 | 0.00 | 0.00 | 65 | 1018.9 |
| 20260510095603 | 51 | 148 | 6.1 | 8.7 | 0.00 | 0.00 | 0.00 | 64 | 1018.9 |
| 20260510095103 | 51 | 152 | 5.2 | 7.8 | 0.00 | 0.00 | 0.00 | 64 | 1018.9 |
| 20260510094603 | 51 | 154 | 6.1 | 7.8 | 0.00 | 0.00 | 0.00 | 64 | 1018.9 |
| 20260510093603 | 50 | 159 | 4.3 | 6.1 | 0.00 | 0.00 | 0.00 | 65 | 1019.2 |
| 20260510092603 | 51 | 169 | 4.3 | 5.2 | 0.00 | 0.00 | 0.00 | 64 | 1019.0 |
| 20260510092104 | 51 | 169 | 5.2 | 6.1 | 0.00 | 0.00 | 0.00 | 64 | 1019.1 |
| 20260510091604 | 51 | 168 | 4.3 | 5.2 | 0.00 | 0.00 | 0.00 | 64 | 1019.1 |
| 20260510091103 | 51 | 167 | 5.2 | 5.2 | 0.00 | 0.00 | 0.00 | 64 | 1019.3 |
| 20260510090104 | 50 | 167 | 2.6 | 4.3 | 0.00 | 0.00 | 0.00 | 65 | 1019.6 |
| 20260510085604 | 50 | 167 | 2.6 | 2.6 | 0.00 | 0.00 | 0.00 | 65 | 1019.7 |
| 20260510084603 | 52 | 167 | 2.6 | 2.6 | 0.00 | 0.00 | 0.00 | 63 | 1019.5 |
| 20260510084103 | 52 | 167 | 2.6 | 4.3 | 0.00 | 0.00 | 0.00 | 63 | 1019.4 |
| 20260510083603 | 51 | 167 | 4.3 | 5.2 | 0.00 | 0.00 | 0.00 | 64 | 1019.7 |
| 20260510083103 | 51 | 167 | 5.2 | 6.1 | 0.00 | 0.00 | 0.00 | 64 | 1019.7 |
| 20260510082603 | 52 | 167 | 5.2 | 7.0 | 0.00 | 0.00 | 0.00 | 64 | 1019.5 |
| 20260510082104 | 51 | 169 | 7.8 | 8.7 | 0.00 | 0.00 | 0.00 | 64 | 1019.8 |
| 20260510081603 | 51 | 169 | 7.8 | 8.7 | 0.00 | 0.00 | 0.00 | 65 | 1019.8 |
| 20260510081104 | 50 | 169 | 7.8 | 7.8 | 0.00 | 0.00 | 0.00 | 67 | 1020.0 |
| 20260510080603 | 49 | 167 | 6.1 | 7.8 | 0.00 | 0.00 | 0.00 | 68 | 1020.3 |
| 20260510080103 | 49 | 167 | 5.2 | 6.1 | 0.00 | 0.00 | 0.00 | 69 | 1020.3 |
| 20260510075603 | 49 | 169 | 5.2 | 6.1 | 0.00 | 0.00 | 0.00 | 68 | 1020.3 |
| 20260510075103 | 50 | 170 | 6.1 | 7.8 | 0.00 | 0.00 | 0.00 | 66 | 1020.1 |
| 20260510074103 | 49 | 167 | 5.2 | 6.1 | 0.00 | 0.00 | 0.00 | 68 | 1020.5 |
| 20260510073603 | 48 | 167 | 4.3 | 5.2 | 0.00 | 0.00 | 0.00 | 70 | 1020.5 |
| 20260510073104 | 48 | 172 | 4.3 | 5.2 | 0.00 | 0.00 | 0.00 | 69 | 1020.5 |
| 20260510072603 | 49 | 193 | 3.5 | 4.3 | 0.00 | 0.00 | 0.00 | 68 | 1020.5 |
| 20260510071604 | 50 | 193 | 4.3 | 6.1 | 0.00 | 0.00 | 0.00 | 67 | 1020.3 |
| 20260510070604 | 49 | 194 | 5.2 | 6.1 | 0.00 | 0.00 | 0.00 | 69 | 1020.6 |
| 20260510070103 | 49 | 195 | 5.2 | 6.1 | 0.00 | 0.00 | 0.00 | 68 | 1020.6 |
| 20260510065603 | 49 | 188 | 5.2 | 5.2 | 0.00 | 0.00 | 0.00 | 69 | 1020.7 |
| 20260510065104 | 50 | 188 | 4.3 | 4.3 | 0.00 | 0.00 | 0.00 | 68 | 1020.4 |
| 20260510064104 | 50 | 190 | 5.2 | 5.2 | 0.00 | 0.00 | 0.00 | 68 | 1020.4 |
| 20260510063603 | 50 | 190 | 4.3 | 5.2 | 0.00 | 0.00 | 0.00 | 69 | 1020.5 |
| 20260510063103 | 50 | 190 | 4.3 | 4.3 | 0.00 | 0.00 | 0.00 | 69 | 1020.5 |
| 20260510062603 | 50 | 190 | 4.3 | 5.2 | 0.00 | 0.00 | 0.00 | 69 | 1020.6 |
| 20260510062104 | 50 | 190 | 5.2 | 5.2 | 0.00 | 0.00 | 0.00 | 69 | 1020.6 |
| 20260510061603 | 50 | 190 | 4.3 | 4.3 | 0.00 | 0.00 | 0.00 | 69 | 1020.7 |
| 20260510061103 | 50 | 190 | 4.3 | 5.2 | 0.00 | 0.00 | 0.00 | 69 | 1020.8 |
| 20260510060603 | 50 | 190 | 5.2 | 6.1 | 0.00 | 0.00 | 0.00 | 69 | 1020.9 |
| 20260510055603 | 50 | 190 | 5.2 | 6.1 | 0.00 | 0.00 | 0.00 | 70 | 1021.0 |
| 20260510054603 | 50 | 190 | 4.3 | 5.2 | 0.00 | 0.00 | 0.00 | 71 | 1021.0 |
| 20260510054104 | 49 | 190 | 5.2 | 7.0 | 0.00 | 0.00 | 0.00 | 72 | 1021.0 |
| 20260510053604 | 49 | 190 | 6.1 | 7.0 | 0.00 | 0.00 | 0.00 | 73 | 1021.1 |
| 20260510053105 | 50 | 192 | 6.1 | 7.0 | 0.00 | 0.00 | 0.00 | 71 | 1021.1 |
| 20260510052603 | 51 | 187 | 4.3 | 5.2 | 0.00 | 0.00 | 0.00 | 70 | 1020.8 |
| 20260510052104 | 51 | 179 | 5.2 | 5.2 | 0.00 | 0.00 | 0.00 | 70 | 1020.8 |
| 20260510050104 | 50 | 189 | 6.1 | 6.1 | 0.00 | 0.00 | 0.00 | 73 | 1022.0 |
| 20260510045603 | 49 | 190 | 3.5 | 6.1 | 0.00 | 0.00 | 0.00 | 72 | 1022.1 |
| 20260510045103 | 50 | 193 | 0.9 | 5.2 | 0.00 | 0.00 | 0.00 | 70 | 1022.0 |
| 20260510044103 | 50 | 193 | 4.3 | 5.2 | 0.00 | 0.00 | 0.00 | 73 | 1022.1 |
| 20260510043603 | 50 | 191 | 2.6 | 4.3 | 0.00 | 0.00 | 0.00 | 73 | 1022.1 |
| 20260510043104 | 51 | 110 | 1.7 | 2.6 | 0.00 | 0.00 | 0.00 | 73 | 1021.9 |
| 20260510042604 | 52 | 110 | 1.7 | 2.6 | 0.00 | 0.00 | 0.00 | 69 | 1021.9 |
| 20260510042103 | 53 | 110 | 0.9 | 1.7 | 0.00 | 0.00 | 0.00 | 69 | 1021.7 |
| 20260510041603 | 53 | 110 | 0.9 | 2.6 | 0.00 | 0.00 | 0.00 | 68 | 1021.7 |
| 20260510041104 | 54 | 110 | 1.7 | 4.3 | 0.00 | 0.00 | 0.00 | 65 | 1021.6 |
| 20260510040604 | 54 | 89 | 1.7 | 2.6 | 0.00 | 0.00 | 0.00 | 65 | 1021.6 |
| 20260510040103 | 55 | 71 | 1.7 | 2.6 | 0.00 | 0.00 | 0.00 | 64 | 1021.5 |
| 20260510035604 | 55 | 71 | 0.9 | 1.7 | 0.00 | 0.00 | 0.00 | 65 | 1021.3 |
| 20260510035104 | 55 | 71 | 1.7 | 2.6 | 0.00 | 0.00 | 0.00 | 67 | 1021.3 |
| 20260510034604 | 56 | 54 | 0.9 | 2.6 | 0.00 | 0.00 | 0.00 | 68 | 1021.1 |
| 20260510034104 | 57 | 54 | 0.0 | 0.0 | 0.00 | 0.00 | 0.00 | 64 | 1021.2 |
| 20260510033603 | 57 | 54 | 0.0 | 0.0 | 0.00 | 0.00 | 0.00 | 59 | 1021.3 |
| 20260510033104 | 58 | 54 | 0.0 | 0.9 | 0.00 | 0.00 | 0.00 | 59 | 1021.0 |
| 20260510032603 | 58 | 54 | 0.9 | 1.7 | 0.00 | 0.00 | 0.00 | 59 | 1020.9 |
| 20260510031104 | 58 | 54 | 1.7 | 2.6 | 0.00 | 0.00 | 0.00 | 60 | 1020.7 |
| 20260510030103 | 59 | 37 | 1.7 | 2.6 | 0.00 | 0.00 | 0.00 | 58 | 1020.7 |
| 20260510025103 | 60 | 37 | 0.9 | 1.7 | 0.00 | 0.00 | 0.00 | 56 | 1020.7 |
| 20260510024604 | 60 | 37 | 0.9 | 1.7 | 0.00 | 0.00 | 0.00 | 54 | 1020.8 |
| 20260510024103 | 60 | 37 | 0.0 | 0.9 | 0.00 | 0.00 | 0.00 | 55 | 1020.8 |
| 20260510023604 | 61 | 37 | 0.9 | 1.7 | 0.00 | 0.00 | 0.00 | 55 | 1020.5 |
| 20260510023103 | 61 | 37 | 0.9 | 1.7 | 0.00 | 0.00 | 0.00 | 55 | 1020.4 |
| 20260510022603 | 61 | 37 | 2.6 | 2.6 | 0.00 | 0.00 | 0.00 | 55 | 1020.4 |
| 20260510022104 | 62 | 22 | 2.6 | 2.6 | 0.00 | 0.00 | 0.00 | 53 | 1020.5 |
| 20260510021603 | 62 | 22 | 1.7 | 2.6 | 0.00 | 0.00 | 0.00 | 52 | 1020.6 |
| 20260510021103 | 63 | 22 | 1.7 | 2.6 | 0.00 | 0.00 | 0.00 | 52 | 1020.2 |
| 20260510015603 | 63 | 348 | 0.0 | 2.6 | 0.00 | 0.00 | 0.00 | 53 | 1020.3 |
| 20260510015104 | 64 | 342 | 1.7 | 4.3 | 0.00 | 0.00 | 0.00 | 52 | 1020.3 |
| 20260510014603 | 64 | 347 | 1.7 | 2.6 | 0.00 | 0.00 | 0.00 | 52 | 1020.3 |
| 20260510014103 | 64 | 307 | 1.7 | 4.3 | 0.00 | 0.00 | 0.00 | 50 | 1020.3 |
| 20260510013603 | 64 | 355 | 0.0 | 1.7 | 0.00 | 0.00 | 0.00 | 50 | 1020.3 |
| 20260510013103 | 64 | 355 | 0.9 | 2.6 | 0.00 | 0.00 | 0.00 | 49 | 1020.4 |
| 20260510012603 | 65 | 5 | 0.9 | 4.3 | 0.00 | 0.00 | 0.00 | 49 | 1020.1 |
| 20260510011603 | 65 | 3 | 0.9 | 4.3 | 0.00 | 0.00 | 0.00 | 48 | 1020.2 |
| 20260510011104 | 65 | 308 | 2.6 | 6.1 | 0.00 | 0.00 | 0.00 | 47 | 1021.0 |
| 20260510010603 | 65 | 25 | 1.7 | 6.1 | 0.00 | 0.00 | 0.00 | 47 | 1021.3 |
| 20260510010104 | 66 | 17 | 1.7 | 4.3 | 0.00 | 0.00 | 0.00 | 47 | 1021.0 |
| 20260510005603 | 66 | 355 | 2.6 | 4.3 | 0.00 | 0.00 | 0.00 | 46 | 1021.0 |
| 20260510005103 | 67 | 14 | 1.7 | 2.6 | 0.00 | 0.00 | 0.00 | 46 | 1021.0 |
| 20260510004603 | 66 | 340 | 1.7 | 4.3 | 0.00 | 0.00 | 0.00 | 46 | 1021.0 |
| 20260510004103 | 66 | 355 | 1.7 | 4.3 | 0.00 | 0.00 | 0.00 | 46 | 1020.9 |
| 20260510003603 | 66 | 344 | 2.6 | 4.3 | 0.00 | 0.00 | 0.00 | 44 | 1021.1 |
| 20260510003103 | 66 | 307 | 0.9 | 4.3 | 0.00 | 0.00 | 0.00 | 45 | 1021.2 |
| 20260510002603 | 67 | 323 | 2.6 | 6.1 | 0.00 | 0.00 | 0.00 | 45 | 1021.1 |
| 20260510002103 | 67 | 329 | 0.9 | 5.2 | 0.00 | 0.00 | 0.00 | 45 | 1021.1 |
| 20260510001604 | 67 | 349 | 2.6 | 6.1 | 0.00 | 0.00 | 0.00 | 42 | 1021.1 |
| 20260510001104 | 67 | 336 | 1.7 | 4.3 | 0.00 | 0.00 | 0.00 | 44 | 1021.0 |
| 20260510000603 | 67 | 2 | 2.6 | 6.1 | 0.00 | 0.00 | 0.00 | 41 | 1021.0 |
| 20260510000103 | 68 | 352 | 1.7 | 6.1 | 0.00 | 0.00 | 0.00 | 42 | 1020.9 |
| 20260509235604 | 68 | 323 | 2.6 | 5.2 | 0.00 | 0.00 | 0.00 | 39 | 1020.9 |
| 20260509235104 | 67 | 342 | 2.6 | 6.1 | 0.00 | 0.00 | 0.00 | 40 | 1021.0 |
| 20260509234103 | 67 | 331 | 2.6 | 8.7 | 0.00 | 0.00 | 0.00 | 41 | 1021.0 |
| 20260509233603 | 67 | 311 | 1.7 | 7.8 | 0.00 | 0.00 | 0.00 | 41 | 1021.0 |
| 20260509233104 | 68 | 353 | 4.3 | 8.7 | 0.00 | 0.00 | 0.00 | 39 | 1021.0 |
| 20260509232604 | 68 | 346 | 2.6 | 4.3 | 0.00 | 0.00 | 0.00 | 39 | 1021.0 |
| 20260509232103 | 68 | 316 | 1.7 | 7.8 | 0.00 | 0.00 | 0.00 | 38 | 1021.0 |
| 20260509231604 | 68 | 336 | 2.6 | 7.8 | 0.00 | 0.00 | 0.00 | 38 | 1021.0 |
| 20260509231104 | 68 | 0 | 1.7 | 5.2 | 0.00 | 0.00 | 0.00 | 38 | 1021.0 |
| 20260509230603 | 68 | 310 | 1.7 | 8.7 | 0.00 | 0.00 | 0.00 | 40 | 1020.9 |
| 20260509230103 | 68 | 346 | 0.9 | 5.2 | 0.00 | 0.00 | 0.00 | 41 | 1020.9 |
| 20260509225604 | 67 | 8 | 2.6 | 7.8 | 0.00 | 0.00 | 0.00 | 42 | 1021.1 |
| 20260509224103 | 68 | 353 | 2.6 | 6.1 | 0.00 | 0.00 | 0.00 | 40 | 1021.0 |
| 20260509223104 | 67 | 282 | 2.6 | 4.3 | 0.00 | 0.00 | 0.00 | 42 | 1021.3 |
| 20260509222103 | 66 | 335 | 1.7 | 5.2 | 0.00 | 0.00 | 0.00 | 42 | 1021.4 |
| 20260509221604 | 67 | 291 | 3.5 | 6.1 | 0.00 | 0.00 | 0.00 | 40 | 1021.4 |
| 20260509221103 | 67 | 329 | 1.7 | 6.1 | 0.00 | 0.00 | 0.00 | 43 | 1021.5 |
| 20260509220604 | 66 | 310 | 2.6 | 6.1 | 0.00 | 0.00 | 0.00 | 43 | 1021.7 |
| 20260509220103 | 66 | 324 | 1.7 | 6.1 | 0.00 | 0.00 | 0.00 | 44 | 1021.7 |
| 20260509215603 | 64 | 291 | 1.7 | 2.6 | 0.00 | 0.00 | 0.00 | 43 | 1022.0 |
| 20260509215103 | 64 | 189 | 2.6 | 5.2 | 0.00 | 0.00 | 0.00 | 41 | 1022.2 |
| 20260509214604 | 64 | 153 | 3.5 | 8.7 | 0.00 | 0.00 | 0.00 | 43 | 1022.1 |
| 20260509214104 | 63 | 148 | 1.7 | 2.6 | 0.00 | 0.00 | 0.00 | 43 | 1022.5 |
| 20260509213103 | 64 | 199 | 2.6 | 8.7 | 0.00 | 0.00 | 0.00 | 43 | 1022.3 |
| 20260509212103 | 64 | 236 | 2.6 | 10.4 | 0.00 | 0.00 | 0.00 | 41 | 1022.5 |
| 20260509211604 | 65 | 30 | 2.6 | 5.2 | 0.00 | 0.00 | 0.00 | 44 | 1022.5 |
| 20260509211103 | 64 | 18 | 2.6 | 7.8 | 0.00 | 0.00 | 0.00 | 46 | 1022.4 |
| 20260509210603 | 63 | 24 | 3.5 | 8.7 | 0.00 | 0.00 | 0.00 | 47 | 1022.1 |
| 20260509210103 | 62 | 66 | 0.9 | 5.2 | 0.00 | 0.00 | 0.00 | 48 | 1022.4 |
| 20260509205104 | 63 | 311 | 3.5 | 8.7 | 0.00 | 0.00 | 0.00 | 48 | 1022.3 |
| 20260509203603 | 63 | 200 | 1.7 | 4.3 | 0.00 | 0.00 | 0.00 | 48 | 1022.3 |
| 20260509203103 | 64 | 297 | 2.6 | 5.2 | 0.00 | 0.00 | 0.00 | 48 | 1022.3 |
| 20260509202604 | 64 | 23 | 2.6 | 8.7 | 0.00 | 0.00 | 0.00 | 50 | 1022.3 |
| 20260509202103 | 64 | 33 | 1.7 | 8.7 | 0.00 | 0.00 | 0.00 | 48 | 1022.4 |
| 20260509201103 | 62 | 24 | 2.6 | 5.2 | 0.00 | 0.00 | 0.00 | 49 | 1022.6 |
| 20260509200604 | 62 | 52 | 2.6 | 5.2 | 0.00 | 0.00 | 0.00 | 48 | 1022.3 |
| 20260509195604 | 64 | 337 | 2.6 | 6.1 | 0.00 | 0.00 | 0.00 | 47 | 1022.1 |
| 20260509195104 | 64 | 59 | 1.7 | 4.3 | 0.00 | 0.00 | 0.00 | 52 | 1022.1 |
| 20260509194604 | 63 | 350 | 3.5 | 6.1 | 0.00 | 0.00 | 0.00 | 50 | 1022.4 |
| 20260509193604 | 62 | 322 | 2.6 | 5.2 | 0.00 | 0.00 | 0.00 | 53 | 1022.6 |
| 20260509192604 | 61 | 32 | 3.5 | 7.8 | 0.00 | 0.00 | 0.00 | 53 | 1023.1 |
| 20260509192104 | 62 | 322 | 4.3 | 6.1 | 0.00 | 0.00 | 0.00 | 51 | 1022.9 |
| 20260509191103 | 62 | 320 | 3.5 | 6.1 | 0.00 | 0.00 | 0.00 | 52 | 1022.9 |
| 20260509190603 | 62 | 46 | 2.6 | 6.1 | 0.00 | 0.00 | 0.00 | 50 | 1022.9 |
| 20260509190104 | 62 | 32 | 1.7 | 4.3 | 0.00 | 0.00 | 0.00 | 53 | 1022.9 |
| 20260509185604 | 62 | 311 | 2.6 | 5.2 | 0.00 | 0.00 | 0.00 | 51 | 1022.9 |
| 20260509185104 | 62 | 312 | 2.6 | 5.2 | 0.00 | 0.00 | 0.00 | 52 | 1022.9 |
| 20260509184604 | 61 | 339 | 1.7 | 5.2 | 0.00 | 0.00 | 0.00 | 54 | 1022.8 |
| 20260509184103 | 61 | 317 | 2.6 | 7.0 | 0.00 | 0.00 | 0.00 | 52 | 1022.8 |
| 20260509183604 | 61 | 3 | 1.7 | 6.1 | 0.00 | 0.00 | 0.00 | 57 | 1022.8 |
| 20260509183104 | 62 | 60 | 2.6 | 8.7 | 0.00 | 0.00 | 0.00 | 50 | 1022.8 |
| 20260509182104 | 62 | 313 | 1.7 | 4.3 | 0.00 | 0.00 | 0.00 | 54 | 1022.8 |
| 20260509181604 | 61 | 27 | 0.9 | 4.3 | 0.00 | 0.00 | 0.00 | 54 | 1022.8 |
| 20260509181103 | 61 | 33 | 3.5 | 8.7 | 0.00 | 0.00 | 0.00 | 51 | 1022.9 |
| 20260509180603 | 60 | 319 | 2.6 | 7.8 | 0.00 | 0.00 | 0.00 | 54 | 1022.9 |
| 20260509180104 | 60 | 336 | 1.7 | 7.8 | 0.00 | 0.00 | 0.00 | 53 | 1023.0 |
| 20260509175604 | 59 | 325 | 2.6 | 10.4 | 0.00 | 0.00 | 0.00 | 52 | 1022.9 |
| 20260509175104 | 59 | 314 | 2.6 | 7.0 | 0.00 | 0.00 | 0.00 | 54 | 1022.9 |
| 20260509174604 | 58 | 2 | 2.6 | 5.2 | 0.00 | 0.00 | 0.00 | 54 | 1023.1 |
| 20260509174104 | 58 | 337 | 3.5 | 6.1 | 0.00 | 0.00 | 0.00 | 55 | 1023.1 |
| 20260509173604 | 58 | 288 | 2.6 | 4.3 | 0.00 | 0.00 | 0.00 | 54 | 1023.1 |
| 20260509173104 | 57 | 285 | 2.6 | 5.2 | 0.00 | 0.00 | 0.00 | 55 | 1023.1 |
| 20260509172103 | 57 | 266 | 4.3 | 7.8 | 0.00 | 0.00 | 0.00 | 53 | 1023.1 |
| 20260509171604 | 56 | 321 | 0.9 | 4.3 | 0.00 | 0.00 | 0.00 | 54 | 1023.4 |
| 20260509171104 | 55 | 292 | 4.3 | 6.1 | 0.00 | 0.00 | 0.00 | 54 | 1023.4 |
| 20260509170603 | 55 | 263 | 4.3 | 6.1 | 0.00 | 0.00 | 0.00 | 53 | 1023.5 |
| 20260509165103 | 55 | 279 | 7.8 | 10.4 | 0.00 | 0.00 | 0.00 | 55 | 1023.5 |
| 20260509164603 | 55 | 268 | 5.2 | 10.4 | 0.00 | 0.00 | 0.00 | 55 | 1023.5 |
| 20260509164103 | 55 | 296 | 4.3 | 8.7 | 0.00 | 0.00 | 0.00 | 57 | 1023.5 |
| 20260509163104 | 56 | 280 | 6.1 | 10.4 | 0.00 | 0.00 | 0.00 | 54 | 1023.3 |
| 20260509162604 | 55 | 309 | 3.5 | 7.8 | 0.00 | 0.00 | 0.00 | 57 | 1023.6 |
| 20260509162104 | 55 | 310 | 4.3 | 7.0 | 0.00 | 0.00 | 0.00 | 54 | 1023.6 |
| 20260509161603 | 54 | 243 | 0.9 | 6.1 | 0.00 | 0.00 | 0.00 | 57 | 1023.6 |
| 20260509161104 | 54 | 265 | 6.1 | 8.7 | 0.00 | 0.00 | 0.00 | 56 | 1023.5 |
| 20260509160604 | 54 | 251 | 6.1 | 8.7 | 0.00 | 0.00 | 0.00 | 56 | 1023.5 |
| 20260509160104 | 54 | 282 | 4.3 | 5.2 | 0.00 | 0.00 | 0.00 | 58 | 1023.5 |
| 20260509155604 | 54 | 272 | 5.2 | 8.7 | 0.00 | 0.00 | 0.00 | 57 | 1023.4 |
| 20260509155103 | 54 | 250 | 7.8 | 10.4 | 0.00 | 0.00 | 0.00 | 56 | 1023.5 |
| 20260509154603 | 54 | 270 | 5.2 | 10.4 | 0.00 | 0.00 | 0.00 | 57 | 1023.4 |
| 20260509154104 | 54 | 262 | 1.7 | 6.1 | 0.00 | 0.00 | 0.00 | 55 | 1023.3 |
| 20260509153603 | 54 | 276 | 4.3 | 8.7 | 0.00 | 0.00 | 0.00 | 57 | 1023.3 |
| 20260509153104 | 55 | 269 | 1.7 | 8.7 | 0.00 | 0.00 | 0.00 | 57 | 1023.3 |
| 20260509152103 | 54 | 61 | 0.9 | 2.6 | 0.00 | 0.00 | 0.00 | 60 | 1023.2 |
| 20260509151603 | 54 | 61 | 1.7 | 2.6 | 0.00 | 0.00 | 0.00 | 60 | 1023.2 |
| 20260509151103 | 53 | 50 | 1.7 | 2.6 | 0.00 | 0.00 | 0.00 | 62 | 1023.3 |
| 20260509150604 | 52 | 104 | 1.7 | 4.3 | 0.00 | 0.00 | 0.00 | 60 | 1023.4 |
| 20260509150103 | 53 | 78 | 2.6 | 5.2 | 0.00 | 0.00 | 0.00 | 60 | 1023.3 |
| 20260509145605 | 54 | 55 | 2.6 | 2.6 | 0.00 | 0.00 | 0.00 | 60 | 1023.2 |
| 20260509144604 | 54 | 37 | 1.7 | 2.6 | 0.00 | 0.00 | 0.00 | 58 | 1023.2 |
| 20260509144103 | 54 | 37 | 1.7 | 2.6 | 0.00 | 0.00 | 0.00 | 62 | 1023.1 |
| 20260509143604 | 54 | 39 | 2.6 | 4.3 | 0.00 | 0.00 | 0.00 | 58 | 1023.2 |
| 20260509143103 | 54 | 31 | 0.9 | 4.3 | 0.00 | 0.00 | 0.00 | 59 | 1023.2 |
| 20260509142603 | 54 | 29 | 1.7 | 2.6 | 0.00 | 0.00 | 0.00 | 58 | 1023.1 |
| 20260509142103 | 53 | 17 | 1.7 | 2.6 | 0.00 | 0.00 | 0.00 | 60 | 1023.1 |